SCP
-0 -0 -0 -0 -0 -0 -0 0 0 0 0 0 -0 0 0 0 -0 0 -0 0 0 -0 -0 0 0 0 0 0 0 0 0 0 0 0 0 0 -0 0 0 0 0 0 0 0
-0 -0 -0 -0 -0 0 0 0 0 0 0 0 0 0 -0 -0 0 0 0 0 0 0 0 0 0 0 0 0 0 0 0 0 0 0 0 0 0 0 0 0 -0 -0 0 0
-0 -0 -0 -0 -0 -0 0 0 0 0 0 0 0 0 0 0 -0 0 0 0 0 0 0 0 0 0 0 0 0 0 -0 0 0 0 0 -0 0 0 0 0 -0 -0 0 0
-0 -0 -0 -0 -0 -0 -0 0 0 0 0 0 0 0 0 0 0 0 0 0 0 0 0 0 0 0 0 0 0 0 0 0 0 0 0 0 0 0 0 0 0 0 0 0
-0 -0 -0 -0 -0 -0 0 0 0 0 0 0 0 0 0 0 0 0 0 0 0 0 0 0 0 0 0 0 0 0 0 0 0 0 0 0 0 0 0 0 -0 0 0 0
0 0 0 0 0 0 0 0 0 0 0 0 0 0 0 0 0 0 0 0 0 0 0 0 0 0 0 0 0 0 0 0 0 -0 0 0 0 0 0 0 0 0 0 0
0 0 0 0 0 0 0 0 0 0 0 0 0 0 0 0 0 0 0 0 0 0 0 0 0 0 0 0 0 0 0 0 0 0 0 0 0 0 0 0 0 0 0 0
0 0 0 0 0 0 0 0 0 0 0 0 0 0 0 0 0 0 0 0 0 0 0 0 0 0 0 0 0 0 0 0 0 0 0 0 0 0 0 0 0 0 0 0
0 0 0 0 0 0 0 0 0 0 0 0 0 0 0 0 0 0 0 0 0 0 0 0 0 0 0 0 0 0 0 0 0 0 0 0 0 0 0 0 0 0 0 0
0 0 0 0 0 0 0 0 0 0 0 0 0 0 0 0 0 0 0 0 0 0 0 0 0 0 0 0 0 0 0 0 0 0 0 0 0 0 0 0 0 0 0 0
0 0 0 0 0 0 0 0 0 0 0 0 0 0 0 0 0 0 0 0 0 0 0 0 0 0 0 0 0 0 0 0 0 0 0 0 0 0 0 0 0 0 0 0
0 0 0 0 0 0 0 0 0 0 0 0 0 0 0 0 0 0 0 0 0 0 0 0 0 0 0 0 0 0 0 0 0 0 0 0 0 0 0 0 0 0 0 0
0 0 0 0 0 0 0 0 0 0 0 0 0 0 0 0 0 0 0 0 0 0 0 0 0 0 0 0 0 0 0 0 0 0 0 0 0 0 0 0 0 0 0 0
0 0 0 0 0 0 0 0 0 0 0 0 0 0 0 0 0 0 0 0 0 0 0 0 0 0 0 0 0 0 0 0 0 0 0 0 0 0 0 0 0 0 0 0
0 0 0 0 0 0 0 0 0 0 0 0 0 0 0 0 0 0 0 0 0 0 0 0 0 0 0 0 0 0 0 0 0 0 0 0 0 0 0 0 0 0 0 0
0 0 0 0 0 0 0 0 0 0 0 0 0 0 0 0 0 0 0 0 0 0 0 0 0 0 0 0 0 0 0 0 0 0 0 0 0 0 0 0 0 0 0 0
0 0 0 0 0 0 0 0 0 0 0 0 0 -0 -0 0 0 0 0 0 0 0 0 0 0 0 0 0 0 0 0 0 0 0 0 0 0 0 0 0 0 0 0 0
0 0 0 0 0 0 0 0 0 0 0 0 0 0 0 0 0 0 0 0 0 0 0 0 0 0 0 0 0 0 0 0 0 0 0 0 0 0 0 0 0 0 0 0
0 0 0 0 0 0 0 0 0 0 0 0 0 0 0 0 0 0 0 0 0 0 0 0 0 0 0 0 0 0 0 0 0 0 0 0 0 0 0 0 0 0 0 0
0 0 0 0 0 0 0 0 0 0 0 0 0 0 0 0 0 0 0 0 0 0 0 0 0 0 0 0 0 0 0 0 0 0 0 0 0 0 0 0 0 0 0 0
0 0 0 0 -0 0 0 0 0 0 0 0 0 0 0 0 0 0 0 0 0 0 0 0 0 0 0 0 0 0 0 0 0 0 0 0 0 0 0 0 0 0 0 0
0 0 0 0 0 0 0 0 0 0 0 0 0 0 0 0 0 0 0 0 0 0 0 0 0 0 0 0 0 0 0 0 0 0 0 0 0 0 0 0 0 0 0 0
0 0 0 0 0 0 0 0 0 -0 -0 -0 -0 0 0 0 0 0 0 0 0 0 0 0 0 0 0 0 0 0 0 0 0 0 0 0 0 0 0 0 0 0 0 0
0 0 0 0 0 0 -0 -0 -0 -0 -0 0 0 0 0 0 0 0 0 0 0 0 0 0 0 0 0 0 0 0 0 0 0 0 0 0 0 0 0 0 0 0 0 0
0 0 0 0 -0 -0 -0 -0 -0 -0 -0 -0 0 0 0 0 0 0 0 0 0 0 0 0 0 0 0 0 0 0 0 0 0 0 0 0 0 0 0 0 0 0 0 0
0 0 0 0 0 -0 -0 -0 -0 -0 -0 -0 -0 0 0 0 0 0 0 0 0 0 0 0 0 0 0 0 0 0 0 0 0 0 0 0 0 0 0 0 0 0 0 0
0 0 0 0 0 -0 0 0 0 -0 -0 -0 -0 -0 0 0 0 0 0 0 0 0 0 0 0 0 0 0 0 0 0 0 0 0 0 0 0 0 0 0 0 0 0 -0
Wind_Speed_500mb
59 60 60 63 63 54 46 14 5 15 5 6 3 5 9 12 34 4 9 12 11 5 9 8 8 6 3 5 9 6 7 9 2 15 11 6 9 9 9 10 10 1 9 7
58 58 58 57 61 59 59 34 12 11 16 4 8 15 12 9 10 5 4 5 8 5 8 11 3 9 13 14 7 8 3 5 7 20 15 18 13 11 4 7 6 1 8 9
56 56 55 54 51 49 41 16 8 12 15 14 4 12 11 16 31 10 5 5 9 12 13 7 8 15 4 10 11 11 12 5 12 11 15 8 14 15 6 10 6 6 9 9
54 54 53 52 50 37 27 18 6 12 9 13 15 5 5 14 13 5 11 4 6 2 5 11 10 14 9 13 7 8 7 2 5 9 12 2 6 12 16 5 10 7 15 13
51 51 51 50 48 40 15 15 15 21 21 25 15 11 11 17 29 6 7 10 5 13 11 9 1 5 6 2 7 9 9 4 4 10 14 14 8 14 16 12 8 2 8 14
50 49 48 47 44 42 18 23 11 9 13 15 7 3 13 18 26 6 13 8 8 10 10 10 3 8 11 12 8 4 2 5 7 12 9 11 13 10 9 8 7 13 12 1
48 46 44 41 37 35 30 22 20 10 9 6 5 18 19 20 22 10 20 13 6 2 20 5 11 22 24 23 21 19 8 7 8 9 6 7 17 11 9 19 14 18 22 15
45 44 42 37 33 27 22 18 6 6 7 13 21 28 14 35 37 12 12 22 32 26 2 9 11 12 15 13 17 18 18 10 4 7 7 10 15 12 8 11 9 4 22 13
37 37 38 37 35 30 20 11 4 4 10 10 5 24 15 8 9 16 14 39 30 27 8 7 10 8 7 11 18 9 13 10 10 6 9 12 14 11 8 12 6 9 29 17
37 35 35 35 33 31 25 10 14 10 14 26 15 3 4 14 11 8 13 28 20 9 5 5 7 9 10 7 7 8 6 6 12 7 7 13 12 9 5 5 12 14 40 39
36 35 33 31 30 30 28 14 22 14 16 57 52 52 32 29 10 2 18 20 7 8 5 7 8 8 10 5 9 6 11 10 8 6 5 6 6 10 10 13 22 34 34 30
36 35 34 33 30 27 29 23 17 27 29 38 35 39 41 40 43 40 11 11 12 9 6 4 2 4 0 7 7 5 6 11 10 15 12 16 29 40 38 30 33 28 27 21
35 36 36 35 34 30 29 37 27 24 22 55 66 70 59 25 33 44 34 40 21 13 11 5 5 8 8 5 9 3 10 7 5 7 7 10 24 37 38 44 38 27 21 16
34 32 31 35 37 35 31 36 27 24 13 12 28 40 50 49 41 33 41 68 66 62 50 16 6 4 9 9 8 8 10 9 0 4 7 23 34 45 43 36 26 18 12 11
34 32 34 35 38 37 35 32 25 21 23 10 23 48 59 55 63 64 59 61 59 56 24 8 9 14 7 6 3 6 10 10 5 9 16 13 26 33 30 25 17 11 13 14
34 34 35 36 39 39 34 7 9 13 14 13 8 19 49 55 57 55 59 64 63 57 30 16 25 28 4 8 9 13 36 38 22 11 18 14 33 27 22 22 29 22 18 13
33 35 34 35 36 37 24 14 4 5 12 11 14 12 20 33 36 41 57 69 60 50 42 26 26 19 37 7 14 11 36 28 10 15 17 15 16 24 35 33 27 24 22 14
34 33 32 36 36 42 39 20 11 26 26 14 8 9 17 39 33 20 21 34 52 50 38 25 19 16 16 10 20 34 48 47 23 29 20 15 22 42 32 28 26 20 12 8
36 38 32 31 9 9 12 23 22 20 26 11 9 5 7 22 12 14 15 24 6 19 15 13 18 9 12 18 52 33 43 52 32 26 23 35 35 33 33 25 19 13 11 10
34 26 7 7 7 25 31 11 8 12 18 21 10 12 11 21 14 10 23 10 7 8 16 27 19 21 44 38 31 61 63 45 33 36 44 48 46 37 26 17 12 6 7 8
19 11 8 20 34 34 7 8 9 11 9 15 22 45 19 27 6 5 7 6 5 6 10 21 9 19 30 71 80 65 48 31 42 59 46 38 38 33 23 14 7 4 1 7
15 22 36 24 6 6 5 5 9 9 8 12 10 25 42 24 23 8 6 6 4 10 24 7 16 9 59 71 82 71 42 46 47 51 51 43 34 25 16 15 12 4 3 8
15 6 7 6 5 6 8 7 7 8 32 29 55 21 13 29 23 13 7 5 7 21 6 8 13 41 40 58 71 70 77 46 60 56 49 39 30 19 13 14 8 6 7 11
5 3 7 6 6 9 8 7 9 24 20 49 69 42 21 18 10 8 10 7 4 6 8 7 5 54 72 53 48 56 69 72 68 56 45 36 30 25 17 15 13 10 6 4
7 6 8 11 23 24 34 41 30 43 33 35 41 29 2 6 6 5 5 10 9 9 5 8 54 16 62 66 74 86 83 71 60 51 44 36 26 20 17 12 12 10 7 9
9 13 11 23 17 31 34 40 42 30 50 52 5 9 4 6 6 8 9 7 4 6 9 36 64 14 53 86 83 77 70 63 54 42 32 26 23 20 16 12 17 20 21 40
10 16 29 40 37 35 51 52 55 25 25 6 4 8 5 7 5 8 5 7 11 27 38 38 47 25 44 71 74 68 59 49 38 33 35 29 23 21 16 31 33 30 42 35
Wind_Direction_500mb
357 356 356 351 344 353 4 18 352 107 25 130 156 186 230 280 281 332 348 58 52 47 41 46 51 51 92 38 56 43 333 133 170 251 264 291 132 8 111 110 297 155 157 266
356 357 358 358 351 350 355 339 293 323 313 196 315 310 299 291 303 150 113 72 62 77 34 16 131 170 179 133 105 162 288 16 22 347 351 8 43 338 33 115 85 160 79 263
352 353 356 358 357 347 351 354 356 334 48 78 69 1 307 327 359 347 87 119 77 35 355 45 325 13 336 108 127 133 100 91 143 184 222 228 328 325 10 107 62 181 204 245
344 347 350 356 359 358 9 11 357 12 324 334 337 275 289 318 340 342 331 10 71 297 29 19 31 2 27 12 34 34 80 102 163 246 233 324 301 327 323 346 228 180 253 219
335 339 343 348 358 6 17 18 3 346 306 307 341 2 2 6 340 1 3 63 7 98 122 143 269 29 27 159 21 357 2 264 71 325 318 357 316 301 315 328 273 30 22 63
323 328 334 340 350 6 25 5 338 329 304 337 18 39 324 344 349 306 58 59 61 80 160 144 23 329 285 233 207 241 130 99 49 288 309 356 333 256 274 270 290 151 77 151
316 319 323 329 340 355 6 360 355 343 286 333 341 329 330 341 319 266 304 1 86 243 334 297 341 340 318 295 280 188 210 129 127 228 38 336 243 267 232 103 79 87 94 134
317 315 316 314 320 329 343 352 338 329 291 310 308 350 324 329 341 327 300 3 343 303 53 57 27 343 345 289 246 247 182 129 141 157 182 280 324 327 151 129 23 47 103 95
331 329 323 313 305 308 314 322 310 283 300 253 9 319 328 334 324 337 311 333 331 321 96 91 146 211 246 293 320 7 99 109 138 140 157 214 229 285 151 111 40 324 102 106
328 328 327 325 318 298 300 296 265 253 267 278 296 241 291 325 352 276 324 331 335 325 101 119 158 232 209 251 258 297 325 335 169 160 182 272 239 292 346 150 211 108 90 79
336 334 330 325 320 315 293 281 263 242 250 263 266 272 284 275 270 230 322 342 336 5 80 133 209 181 234 181 238 216 200 178 214 91 144 254 234 52 138 173 136 109 93 85
337 337 338 334 328 321 310 293 250 254 259 260 270 269 258 263 272 265 260 266 318 279 64 33 338 299 349 153 262 330 318 192 192 169 206 186 119 129 140 144 131 118 106 88
330 331 334 335 334 328 319 306 318 289 281 282 270 266 273 277 275 262 249 258 241 230 10 359 253 241 128 181 240 323 308 360 74 72 356 159 125 125 137 136 123 112 101 92
328 332 337 334 330 325 321 310 308 282 268 257 271 266 261 261 252 243 246 255 255 263 280 251 229 231 213 206 201 159 217 360 212 336 267 83 135 133 132 128 130 126 105 113
322 325 328 331 332 326 318 307 289 240 231 293 292 282 270 272 273 269 268 258 258 246 240 209 213 211 213 259 93 223 174 194 132 225 228 154 169 147 148 139 124 129 144 102
319 317 317 320 326 326 335 294 339 216 238 286 292 283 279 280 273 264 263 253 257 230 226 212 228 221 236 192 218 232 260 261 272 214 192 190 155 159 163 146 137 125 106 100
317 316 313 314 315 311 305 276 298 271 319 276 292 273 270 290 297 276 261 256 244 236 217 209 221 201 204 170 235 265 268 267 207 168 153 142 158 154 152 151 135 133 123 107
318 316 310 310 303 294 298 348 260 237 256 250 266 264 296 287 296 278 265 235 231 231 215 201 192 219 200 232 242 219 249 271 243 190 191 200 170 152 141 144 150 141 115 55
318 317 314 301 330 324 314 318 306 262 231 263 243 242 275 281 309 283 277 224 176 220 205 198 185 194 214 202 237 228 224 230 214 184 185 160 151 141 140 147 128 124 74 1
327 325 332 295 236 318 328 274 244 220 216 236 247 238 246 315 343 301 347 349 215 209 217 193 218 226 223 232 243 225 210 216 225 162 129 138 138 142 137 132 108 76 3 352
0 329 275 282 295 304 245 260 217 221 247 232 249 232 231 240 232 269 290 303 296 254 237 199 208 223 221 226 241 251 248 222 233 212 193 176 166 158 153 127 120 105 178 320
298 302 296 304 304 235 248 261 264 239 245 241 224 235 215 233 223 201 247 252 321 241 344 228 210 222 218 223 226 221 209 187 179 176 160 156 157 158 153 139 140 176 303 324
312 294 285 286 273 252 218 234 222 295 341 328 322 300 214 209 210 208 185 219 252 337 248 232 210 213 212 224 223 221 220 195 161 153 153 157 155 161 177 163 179 203 285 320
272 290 276 243 213 248 236 238 252 264 270 304 303 295 205 177 170 209 166 197 257 222 279 253 251 198 208 222 215 189 168 166 153 151 153 153 157 160 163 170 183 218 247 303
234 208 242 236 241 267 275 284 282 289 303 303 276 290 43 169 151 223 137 188 215 208 272 304 326 300 158 154 150 148 145 142 144 148 150 150 156 160 166 178 186 200 174 138
226 230 253 253 289 281 286 296 297 310 331 336 297 303 310 266 131 167 197 216 172 13 312 320 322 312 136 139 140 139 142 143 142 147 151 151 150 156 154 157 167 154 145 137
231 242 239 255 278 274 280 297 294 303 326 302 315 299 342 272 245 182 27 35 329 320 317 336 337 342 146 139 138 140 142 145 150 149 145 141 146 148 139 137 140 143 136 128
Wind_Speed_850mb
59 60 60 63 63 54 46 14 5 15 5 6 3 5 9 12 34 4 9 12 11 5 9 8 8 6 3 5 9 6 7 9 2 15 11 6 9 9 9 10 10 1 9 7
58 58 58 57 61 59 59 34 12 11 16 4 8 15 12 9 10 5 4 5 8 5 8 11 3 9 13 14 7 8 3 5 7 20 15 18 13 11 4 7 6 1 8 9
56 56 55 54 51 49 41 16 8 12 15 14 4 12 11 16 31 10 5 5 9 12 13 7 8 15 4 10 11 11 12 5 12 11 15 8 14 15 6 10 6 6 9 9
54 54 53 52 50 37 27 18 6 12 9 13 15 5 5 14 13 5 11 4 6 2 5 11 10 14 9 13 7 8 7 2 5 9 12 2 6 12 16 5 10 7 15 13
51 51 51 50 48 40 15 15 15 21 21 25 15 11 11 17 29 6 7 10 5 13 11 9 1 5 6 2 7 9 9 4 4 10 14 14 8 14 16 12 8 2 8 14
50 49 48 47 44 42 18 23 11 9 13 15 7 3 13 18 26 6 13 8 8 10 10 10 3 8 11 12 8 4 2 5 7 12 9 11 13 10 9 8 7 13 12 1
48 46 44 41 37 35 30 22 20 10 9 6 5 18 19 20 22 10 20 13 6 2 20 5 11 22 24 23 21 19 8 7 8 9 6 7 17 11 9 19 14 18 22 15
45 44 42 37 33 27 22 18 6 6 7 13 21 28 14 35 37 12 12 22 32 26 2 9 11 12 15 13 17 18 18 10 4 7 7 10 15 12 8 11 9 4 22 13
37 37 38 37 35 30 20 11 4 4 10 10 5 24 15 8 9 16 14 39 30 27 8 7 10 8 7 11 18 9 13 10 10 6 9 12 14 11 8 12 6 9 29 17
37 35 35 35 33 31 25 10 14 10 14 26 15 3 4 14 11 8 13 28 20 9 5 5 7 9 10 7 7 8 6 6 12 7 7 13 12 9 5 5 12 14 40 39
36 35 33 31 30 30 28 14 22 14 16 57 52 52 32 29 10 2 18 20 7 8 5 7 8 8 10 5 9 6 11 10 8 6 5 6 6 10 10 13 22 34 34 30
36 35 34 33 30 27 29 23 17 27 29 38 35 39 41 40 43 40 11 11 12 9 6 4 2 4 0 7 7 5 6 11 10 15 12 16 29 40 38 30 33 28 27 21
35 36 36 35 34 30 29 37 27 24 22 55 66 70 59 25 33 44 34 40 21 13 11 5 5 8 8 5 9 3 10 7 5 7 7 10 24 37 38 44 38 27 21 16
34 32 31 35 37 35 31 36 27 24 13 12 28 40 50 49 41 33 41 68 66 62 50 16 6 4 9 9 8 8 10 9 0 4 7 23 34 45 43 36 26 18 12 11
34 32 34 35 38 37 35 32 25 21 23 10 23 48 59 55 63 64 59 61 59 56 24 8 9 14 7 6 3 6 10 10 5 9 16 13 26 33 30 25 17 11 13 14
34 34 35 36 39 39 34 7 9 13 14 13 8 19 49 55 57 55 59 64 63 57 30 16 25 28 4 8 9 13 36 38 22 11 18 14 33 27 22 22 29 22 18 13
33 35 34 35 36 37 24 14 4 5 12 11 14 12 20 33 36 41 57 69 60 50 42 26 26 19 37 7 14 11 36 28 10 15 17 15 16 24 35 33 27 24 22 14
34 33 32 36 36 42 39 20 11 26 26 14 8 9 17 39 33 20 21 34 52 50 38 25 19 16 16 10 20 34 48 47 23 29 20 15 22 42 32 28 26 20 12 8
36 38 32 31 9 9 12 23 22 20 26 11 9 5 7 22 12 14 15 24 6 19 15 13 18 9 12 18 52 33 43 52 32 26 23 35 35 33 33 25 19 13 11 10
34 26 7 7 7 25 31 11 8 12 18 21 10 12 11 21 14 10 23 10 7 8 16 27 19 21 44 38 31 61 63 45 33 36 44 48 46 37 26 17 12 6 7 8
19 11 8 20 34 34 7 8 9 11 9 15 22 45 19 27 6 5 7 6 5 6 10 21 9 19 30 71 80 65 48 31 42 59 46 38 38 33 23 14 7 4 1 7
15 22 36 24 6 6 5 5 9 9 8 12 10 25 42 24 23 8 6 6 4 10 24 7 16 9 59 71 82 71 42 46 47 51 51 43 34 25 16 15 12 4 3 8
15 6 7 6 5 6 8 7 7 8 32 29 55 21 13 29 23 13 7 5 7 21 6 8 13 41 40 58 71 70 77 46 60 56 49 39 30 19 13 14 8 6 7 11
5 3 7 6 6 9 8 7 9 24 20 49 69 42 21 18 10 8 10 7 4 6 8 7 5 54 72 53 48 56 69 72 68 56 45 36 30 25 17 15 13 10 6 4
7 6 8 11 23 24 34 41 30 43 33 35 41 29 2 6 6 5 5 10 9 9 5 8 54 16 62 66 74 86 83 71 60 51 44 36 26 20 17 12 12 10 7 9
9 13 11 23 17 31 34 40 42 30 50 52 5 9 4 6 6 8 9 7 4 6 9 36 64 14 53 86 83 77 70 63 54 42 32 26 23 20 16 12 17 20 21 40
10 16 29 40 37 35 51 52 55 25 25 6 4 8 5 7 5 8 5 7 11 27 38 38 47 25 44 71 74 68 59 49 38 33 35 29 23 21 16 31 33 30 42 35
Wind_Direction_850mb
357 356 356 351 344 353 4 18 352 107 25 130 156 186 230 280 281 332 348 58 52 47 41 46 51 51 92 38 56 43 333 133 170 251 264 291 132 8 111 110 297 155 157 266
356 357 358 358 351 350 355 339 293 323 313 196 315 310 299 291 303 150 113 72 62 77 34 16 131 170 179 133 105 162 288 16 22 347 351 8 43 338 33 115 85 160 79 263
352 353 356 358 357 347 351 354 356 334 48 78 69 1 307 327 359 347 87 119 77 35 355 45 325 13 336 108 127 133 100 91 143 184 222 228 328 325 10 107 62 181 204 245
344 347 350 356 359 358 9 11 357 12 324 334 337 275 289 318 340 342 331 10 71 297 29 19 31 2 27 12 34 34 80 102 163 246 233 324 301 327 323 346 228 180 253 219
335 339 343 348 358 6 17 18 3 346 306 307 341 2 2 6 340 1 3 63 7 98 122 143 269 29 27 159 21 357 2 264 71 325 318 357 316 301 315 328 273 30 22 63
323 328 334 340 350 6 25 5 338 329 304 337 18 39 324 344 349 306 58 59 61 80 160 144 23 329 285 233 207 241 130 99 49 288 309 356 333 256 274 270 290 151 77 151
316 319 323 329 340 355 6 360 355 343 286 333 341 329 330 341 319 266 304 1 86 243 334 297 341 340 318 295 280 188 210 129 127 228 38 336 243 267 232 103 79 87 94 134
317 315 316 314 320 329 343 352 338 329 291 310 308 350 324 329 341 327 300 3 343 303 53 57 27 343 345 289 246 247 182 129 141 157 182 280 324 327 151 129 23 47 103 95
331 329 323 313 305 308 314 322 310 283 300 253 9 319 328 334 324 337 311 333 331 321 96 91 146 211 246 293 320 7 99 109 138 140 157 214 229 285 151 111 40 324 102 106
328 328 327 325 318 298 300 296 265 253 267 278 296 241 291 325 352 276 324 331 335 325 101 119 158 232 209 251 258 297 325 335 169 160 182 272 239 292 346 150 211 108 90 79
336 334 330 325 320 315 293 281 263 242 250 263 266 272 284 275 270 230 322 342 336 5 80 133 209 181 234 181 238 216 200 178 214 91 144 254 234 52 138 173 136 109 93 85
337 337 338 334 328 321 310 293 250 254 259 260 270 269 258 263 272 265 260 266 318 279 64 33 338 299 349 153 262 330 318 192 192 169 206 186 119 129 140 144 131 118 106 88
330 331 334 335 334 328 319 306 318 289 281 282 270 266 273 277 275 262 249 258 241 230 10 359 253 241 128 181 240 323 308 360 74 72 356 159 125 125 137 136 123 112 101 92
328 332 337 334 330 325 321 310 308 282 268 257 271 266 261 261 252 243 246 255 255 263 280 251 229 231 213 206 201 159 217 360 212 336 267 83 135 133 132 128 130 126 105 113
322 325 328 331 332 326 318 307 289 240 231 293 292 282 270 272 273 269 268 258 258 246 240 209 213 211 213 259 93 223 174 194 132 225 228 154 169 147 148 139 124 129 144 102
319 317 317 320 326 326 335 294 339 216 238 286 292 283 279 280 273 264 263 253 257 230 226 212 228 221 236 192 218 232 260 261 272 214 192 190 155 159 163 146 137 125 106 100
317 316 313 314 315 311 305 276 298 271 319 276 292 273 270 290 297 276 261 256 244 236 217 209 221 201 204 170 235 265 268 267 207 168 153 142 158 154 152 151 135 133 123 107
318 316 310 310 303 294 298 348 260 237 256 250 266 264 296 287 296 278 265 235 231 231 215 201 192 219 200 232 242 219 249 271 243 190 191 200 170 152 141 144 150 141 115 55
318 317 314 301 330 324 314 318 306 262 231 263 243 242 275 281 309 283 277 224 176 220 205 198 185 194 214 202 237 228 224 230 214 184 185 160 151 141 140 147 128 124 74 1
327 325 332 295 236 318 328 274 244 220 216 236 247 238 246 315 343 301 347 349 215 209 217 193 218 226 223 232 243 225 210 216 225 162 129 138 138 142 137 132 108 76 3 352
0 329 275 282 295 304 245 260 217 221 247 232 249 232 231 240 232 269 290 303 296 254 237 199 208 223 221 226 241 251 248 222 233 212 193 176 166 158 153 127 120 105 178 320
298 302 296 304 304 235 248 261 264 239 245 241 224 235 215 233 223 201 247 252 321 241 344 228 210 222 218 223 226 221 209 187 179 176 160 156 157 158 153 139 140 176 303 324
312 294 285 286 273 252 218 234 222 295 341 328 322 300 214 209 210 208 185 219 252 337 248 232 210 213 212 224 223 221 220 195 161 153 153 157 155 161 177 163 179 203 285 320
272 290 276 243 213 248 236 238 252 264 270 304 303 295 205 177 170 209 166 197 257 222 279 253 251 198 208 222 215 189 168 166 153 151 153 153 157 160 163 170 183 218 247 303
234 208 242 236 241 267 275 284 282 289 303 303 276 290 43 169 151 223 137 188 215 208 272 304 326 300 158 154 150 148 145 142 144 148 150 150 156 160 166 178 186 200 174 138
226 230 253 253 289 281 286 296 297 310 331 336 297 303 310 266 131 167 197 216 172 13 312 320 322 312 136 139 140 139 142 143 142 147 151 151 150 156 154 157 167 154 145 137
231 242 239 255 278 274 280 297 294 303 326 302 315 299 342 272 245 182 27 35 329 320 317 336 337 342 146 139 138 140 142 145 150 149 145 141 146 148 139 137 140 143 136 128